Location: Dalton
(42.4737°N, 73.1662°W)
Time: 15:20:58
(UTC+00:00)

Envisat - Pass Details

Date: 22 September 2024
Orbit: 762 x 764 km, 98.3° (Epoch: 09 October)

Event Time Altitude Azimuth Distance (km) Brightness Sun altitude
Rises 08:03:20 0° 13° (NNE) 3,235 6.8 -28.6°
Reaches altitude 10° 08:05:39 10° 14° (NNE) 2,304 6.0 -28.2°
Enters shadow 08:10:31 82° 39° (NE) 775 2.9 -27.4°
